^^
Saratoga-Weather Station Historical Data
Daily Summary for January 1, 2020 Units:  Metric    English   Both
Daily Weekly Monthly Yearly Custom
  High: Low: Average:
Temperature: 11.7 °C 9 °C 11 °C
Dew Point: 10.9 °C 7.4 °C 9.9 °C
Humidity: 96% 89% 93%
Wind Speed: 25.9km/h 0km/h 0.5km/h
Wind Gust: 29km/h - -
Wind- - West
Pressure: 1013.9 hPa 1006.1 hPa -
Precipitation: 15.2 mm    
Historical Graphs
 
 
Tabular Data for January 1, 2020
Time Temperature Dew Point Pressure Wind Wind Speed Wind Gust Humidity Rainfall Rate (Hourly) solar
00:00 11 °C 10.1 °C 1012.2 hPa Calm     94% 0.0 mm 0 W/m2
00:05 11 °C 10.1 °C 1012.2 hPa Calm     94% 0.0 mm 0 W/m2
00:10 11 °C 10.1 °C 1011.9 hPa Calm     94% 0.0 mm 0 W/m2
00:15 10.9 °C 10.1 °C 1011.9 hPa Calm     95% 0.2 mm 0 W/m2
00:20 10.9 °C 10.1 °C 1011.9 hPa Calm     95% 0.2 mm 0 W/m2
00:25 10.9 °C 10.1 °C 1011.9 hPa Calm     95% 0.2 mm 0 W/m2
00:30 10.9 °C 10.1 °C 1011.9 hPa Calm     95% 0.2 mm 0 W/m2
00:35 10.9 °C 10.1 °C 1011.9 hPa Calm   1.6 km/h 95% 0.2 mm 0 W/m2
00:41 10.9 °C 10.1 °C 1011.9 hPa Calm     95% 0.2 mm 0 W/m2
00:46 10.8 °C 10 °C 1011.9 hPa Calm     95% 0.2 mm 0 W/m2
00:51 10.8 °C 10 °C 1011.5 hPa Calm     95% 0.2 mm 0 W/m2
00:56 10.8 °C 10 °C 1011.5 hPa Calm     95% 0.2 mm 0 W/m2
01:01 10.8 °C 10 °C 1011.2 hPa Calm     95% 0.2 mm 0 W/m2
01:06 10.8 °C 10 °C 1010.8 hPa Calm     95% 0.2 mm 0 W/m2
01:11 10.8 °C 9.9 °C 1010.8 hPa Calm     94% 0.2 mm 0 W/m2
01:16 10.8 °C 9.9 °C 1011.2 hPa Calm     94% 0.0 mm 0 W/m2
01:21 10.7 °C 9.8 °C 1010.8 hPa Calm     94% 0.0 mm 0 W/m2
01:26 10.7 °C 9.8 °C 1010.8 hPa Calm     94% 0.0 mm 0 W/m2
01:31 10.6 °C 9.7 °C 1010.8 hPa Calm     94% 0.0 mm 0 W/m2
01:36 10.7 °C 9.8 °C 1010.8 hPa Calm     94% 0.0 mm 0 W/m2
01:41 10.8 °C 9.9 °C 1010.8 hPa Calm     94% 0.0 mm 0 W/m2
01:46 10.8 °C 9.9 °C 1010.8 hPa Calm   1.6 km/h 94% 0.0 mm 0 W/m2
01:51 10.9 °C 9.8 °C 1010.8 hPa Calm     93% 0.0 mm 0 W/m2
01:56 10.9 °C 9.8 °C 1010.5 hPa Calm     93% 0.0 mm 0 W/m2
02:01 10.9 °C 9.8 °C 1010.5 hPa Calm   8 km/h 93% 0.0 mm 0 W/m2
02:06 10.9 °C 9.8 °C 1010.5 hPa Calm     93% 0.0 mm 0 W/m2
02:11 10.9 °C 9.8 °C 1010.5 hPa Calm   8 km/h 93% 0.0 mm 0 W/m2
02:16 10.9 °C 9.8 °C 1010.2 hPa Calm     93% 0.0 mm 0 W/m2
02:21 10.9 °C 9.8 °C 1010.2 hPa Calm     93% 0.0 mm 0 W/m2
02:26 10.9 °C 9.8 °C 1010.2 hPa Calm     93% 0.0 mm 0 W/m2
02:31 10.9 °C 9.8 °C 1010.2 hPa Calm     93% 0.0 mm 0 W/m2
02:36 10.9 °C 9.8 °C 1010.2 hPa Calm     93% 0.0 mm 0 W/m2
02:42 10.9 °C 9.8 °C 1010.2 hPa Calm     93% 0.0 mm 0 W/m2
02:47 10.9 °C 9.8 °C 1010.2 hPa Calm     93% 0.0 mm 0 W/m2
02:52 10.9 °C 10 °C 1010.2 hPa Calm     94% 0.0 mm 0 W/m2
02:57 10.9 °C 10 °C 1010.2 hPa Calm     94% 0.0 mm 0 W/m2
03:02 10.8 °C 9.9 °C 1010.2 hPa Calm     94% 0.0 mm 0 W/m2
03:07 10.8 °C 9.9 °C 1009.8 hPa Calm     94% 0.0 mm 0 W/m2
03:12 10.8 °C 9.9 °C 1009.8 hPa Calm     94% 0.0 mm 0 W/m2
03:17 10.8 °C 9.9 °C 1009.8 hPa Calm     94% 0.0 mm 0 W/m2
03:22 10.8 °C 10 °C 1009.8 hPa Calm     95% 0.0 mm 0 W/m2
03:27 10.8 °C 10 °C 1009.8 hPa Calm     95% 0.0 mm 0 W/m2
03:32 10.7 °C 9.9 °C 1009.8 hPa Calm     95% 0.0 mm 0 W/m2
03:37 10.7 °C 9.9 °C 1009.8 hPa Calm     95% 0.2 mm 0 W/m2
03:42 10.7 °C 9.9 °C 1009.5 hPa Calm     95% 0.2 mm 0 W/m2
03:47 10.7 °C 9.9 °C 1009.5 hPa Calm     95% 0.2 mm 0 W/m2
03:52 10.7 °C 9.9 °C 1009.5 hPa Calm     95% 0.2 mm 0 W/m2
03:57 10.7 °C 9.9 °C 1009.1 hPa Calm     95% 0.2 mm 0 W/m2
04:02 10.7 °C 9.9 °C 1009.1 hPa Calm     95% 0.2 mm 0 W/m2
04:07 10.7 °C 9.9 °C 1009.5 hPa Calm     95% 0.2 mm 0 W/m2
04:13 10.7 °C 9.9 °C 1009.1 hPa Calm     95% 0.2 mm 0 W/m2
04:18 10.7 °C 9.9 °C 1009.1 hPa Calm     95% 0.2 mm 0 W/m2
04:23 10.7 °C 9.9 °C 1009.1 hPa Calm     95% 0.2 mm 0 W/m2
04:28 10.7 °C 9.9 °C 1009.1 hPa Calm     95% 0.2 mm 0 W/m2
04:33 10.7 °C 9.9 °C 1008.8 hPa Calm     95% 0.2 mm 0 W/m2
04:38 10.7 °C 9.9 °C 1008.8 hPa Calm     95% 0.0 mm 0 W/m2
04:43 10.7 °C 9.9 °C 1008.8 hPa Calm     95% 0.0 mm 0 W/m2
04:48 10.7 °C 9.9 °C 1008.8 hPa Calm     95% 0.0 mm 0 W/m2
04:53 10.7 °C 9.9 °C 1008.5 hPa Calm     95% 0.0 mm 0 W/m2
04:58 10.7 °C 9.9 °C 1008.5 hPa Calm     95% 0.0 mm 0 W/m2
05:03 10.7 °C 9.9 °C 1008.5 hPa Calm     95% 0.0 mm 0 W/m2
05:08 10.8 °C 10 °C 1008.5 hPa Calm   12.9 km/h 95% 0.0 mm 0 W/m2
05:13 10.8 °C 10 °C 1008.5 hPa Calm     95% 0.0 mm 0 W/m2
05:18 10.8 °C 10 °C 1008.5 hPa Calm   12.9 km/h 95% 0.0 mm 0 W/m2
05:23 10.8 °C 10 °C 1008.1 hPa Calm     95% 0.0 mm 0 W/m2
05:28 10.8 °C 10 °C 1008.1 hPa Calm   11.3 km/h 95% 0.0 mm 0 W/m2
05:33 10.8 °C 10.2 °C 1008.1 hPa Calm     96% 0.0 mm 0 W/m2
05:38 10.8 °C 10.2 °C 1008.1 hPa Calm   3.2 km/h 96% 0.0 mm 0 W/m2
05:43 10.8 °C 10.2 °C 1008.1 hPa Calm     96% 0.0 mm 0 W/m2
05:48 10.8 °C 10.2 °C 1008.1 hPa Calm     96% 0.0 mm 0 W/m2
05:53 10.9 °C 10.3 °C 1008.1 hPa Calm     96% 0.0 mm 0 W/m2
05:58 10.9 °C 10.3 °C 1007.8 hPa Calm     96% 0.0 mm 0 W/m2
06:03 10.9 °C 10.3 °C 1007.8 hPa Calm   4.8 km/h 96% 0.0 mm 0 W/m2
06:08 11 °C 10.2 °C 1007.8 hPa Calm     95% 0.0 mm 0 W/m2
06:13 11.1 °C 10.3 °C 1007.8 hPa Calm     95% 0.0 mm 0 W/m2
06:18 11.1 °C 10.3 °C 1007.5 hPa Calm     95% 0.0 mm 0 W/m2
06:23 11.1 °C 10.3 °C 1007.5 hPa Calm     95% 0.0 mm 0 W/m2
06:28 11.2 °C 10.4 °C 1007.5 hPa Calm     95% 0.0 mm 0 W/m2
06:33 11.2 °C 10.4 °C 1007.5 hPa Calm     95% 0.0 mm 0 W/m2
06:38 11.2 °C 10.4 °C 1007.5 hPa Calm   1.6 km/h 95% 0.0 mm 0 W/m2
06:43 11.3 °C 10.5 °C 1007.1 hPa Calm     95% 0.0 mm 0 W/m2
06:48 11.3 °C 10.4 °C 1007.1 hPa Calm   1.6 km/h 94% 0.0 mm 0 W/m2
06:58 11.3 °C 10.5 °C 1007.1 hPa Calm     95% 0.0 mm 0 W/m2
07:03 11.3 °C 10.4 °C 1007.1 hPa Calm     94% 0.0 mm 0 W/m2
07:08 11.4 °C 10.5 °C 1007.1 hPa Calm     94% 0.0 mm 0 W/m2
07:13 11.4 °C 10.5 °C 1007.1 hPa Calm     94% 0.0 mm 0 W/m2
07:18 11.3 °C 10.4 °C 1006.8 hPa Calm     94% 0.2 mm 0 W/m2
07:23 11.3 °C 10.5 °C 1007.1 hPa Calm     95% 0.5 mm 0 W/m2
07:28 11.3 °C 10.5 °C 1006.8 hPa Calm     95% 0.5 mm 0 W/m2
07:33 11.3 °C 10.5 °C 1006.8 hPa Calm     95% 0.5 mm 0 W/m2
07:38 11.3 °C 10.5 °C 1006.8 hPa Calm     95% 0.5 mm 0 W/m2
07:43 11.3 °C 10.5 °C 1006.8 hPa Calm     95% 0.8 mm 0 W/m2
07:48 11.3 °C 10.5 °C 1006.8 hPa Calm     95% 1.0 mm 0 W/m2
07:53 11.2 °C 10.4 °C 1006.8 hPa Calm     95% 1.3 mm 0 W/m2
07:58 11.2 °C 10.4 °C 1006.8 hPa Calm   1.6 km/h 95% 1.5 mm 0 W/m2
08:03 11.2 °C 10.4 °C 1006.8 hPa Calm     95% 1.5 mm 0 W/m2
08:08 11.2 °C 10.4 °C 1006.8 hPa Calm     95% 1.8 mm 0 W/m2
08:13 11.2 °C 10.4 °C 1006.8 hPa Calm     95% 2.0 mm 0 W/m2
08:18 11.2 °C 10.4 °C 1006.4 hPa Calm     95% 1.8 mm 0 W/m2
08:23 11.2 °C 10.4 °C 1006.8 hPa Calm     95% 1.8 mm 0 W/m2
08:28 11.2 °C 10.4 °C 1006.8 hPa Calm     95% 2.0 mm 0 W/m2
08:33 11.2 °C 10.4 °C 1006.4 hPa Calm   6.4 km/h 95% 2.0 mm 0 W/m2
08:38 11.2 °C 10.4 °C 1006.4 hPa Calm     95% 2.0 mm 5 W/m2
08:43 11.2 °C 10.4 °C 1006.4 hPa Calm   1.6 km/h 95% 1.8 mm 5 W/m2
08:48 11.2 °C 10.4 °C 1006.4 hPa Calm   24.1 km/h 95% 1.5 mm 11 W/m2
08:53 11.2 °C 10.4 °C 1006.4 hPa Calm     95% 1.5 mm 9 W/m2
08:58 11.2 °C 10.4 °C 1006.4 hPa Calm     95% 1.5 mm 11 W/m2
09:03 11.2 °C 10.4 °C 1006.4 hPa Calm   4.8 km/h 95% 1.5 mm 16 W/m2
09:08 11.3 °C 10.5 °C 1006.4 hPa Calm   3.2 km/h 95% 1.5 mm 21 W/m2
09:13 11.2 °C 10.4 °C 1006.4 hPa Calm     95% 1.5 mm 14 W/m2
09:18 11.3 °C 10.5 °C 1006.4 hPa Calm     95% 1.5 mm 26 W/m2
09:23 11.3 °C 10.5 °C 1006.4 hPa Calm     95% 1.5 mm 30 W/m2
09:28 11.3 °C 10.5 °C 1006.4 hPa Calm     95% 1.5 mm 23 W/m2
09:33 11.3 °C 10.5 °C 1006.4 hPa Calm     95% 1.5 mm 23 W/m2
09:38 11.3 °C 10.5 °C 1006.4 hPa Calm     95% 1.5 mm 26 W/m2
09:43 11.3 °C 10.5 °C 1006.4 hPa Calm     95% 1.8 mm 18 W/m2
09:48 11.3 °C 10.5 °C 1006.4 hPa Calm     95% 1.8 mm 18 W/m2
09:54 11.3 °C 10.5 °C 1006.4 hPa Calm     95% 1.8 mm 14 W/m2
09:59 11.3 °C 10.5 °C 1006.4 hPa Calm   14.5 km/h 95% 2.0 mm 21 W/m2
10:04 11.3 °C 10.5 °C 1006.1 hPa Calm     95% 2.0 mm 21 W/m2
10:09 11.3 °C 10.5 °C 1006.1 hPa Calm   14.5 km/h 95% 2.3 mm 18 W/m2
10:14 11.3 °C 10.5 °C 1006.4 hPa Calm     95% 2.0 mm 21 W/m2
10:19 11.3 °C 10.5 °C 1006.4 hPa Calm     95% 2.3 mm 16 W/m2
10:24 11.3 °C 10.5 °C 1006.4 hPa Calm     95% 2.3 mm 18 W/m2
10:29 11.3 °C 10.5 °C 1006.4 hPa Calm   16.1 km/h 95% 2.8 mm 19 W/m2
10:34 11.3 °C 10.5 °C 1006.1 hPa Calm     95% 2.8 mm 18 W/m2
10:39 11.3 °C 10.5 °C 1006.1 hPa WNW 1.4 km/h 1.6 km/h 95% 2.5 mm 21 W/m2
10:44 11.3 °C 10.5 °C 1006.4 hPa Calm     95% 2.5 mm 26 W/m2
10:49 11.3 °C 10.5 °C 1006.4 hPa Calm     95% 2.8 mm 35 W/m2
10:54 11.4 °C 10.6 °C 1006.4 hPa Calm     95% 2.8 mm 33 W/m2
10:59 11.4 °C 10.6 °C 1006.4 hPa Calm     95% 2.8 mm 42 W/m2
11:04 11.4 °C 10.6 °C 1006.4 hPa Calm   11.3 km/h 95% 2.5 mm 44 W/m2
11:09 11.5 °C 10.7 °C 1006.4 hPa NNW 1.4 km/h 1.6 km/h 95% 2.5 mm 30 W/m2
11:14 11.5 °C 10.7 °C 1006.4 hPa Calm     95% 2.5 mm 30 W/m2
11:19 11.5 °C 10.7 °C 1006.4 hPa Calm     95% 2.5 mm 23 W/m2
11:24 11.5 °C 10.7 °C 1006.4 hPa Calm     95% 2.5 mm 16 W/m2
11:29 11.5 °C 10.7 °C 1006.4 hPa Calm   1.6 km/h 95% 2.8 mm 18 W/m2
11:34 11.4 °C 10.6 °C 1006.4 hPa Calm   6.4 km/h 95% 2.8 mm 18 W/m2
11:39 11.4 °C 10.6 °C 1006.4 hPa Calm     95% 3.3 mm 18 W/m2
11:44 11.4 °C 10.6 °C 1006.4 hPa Calm     95% 3.3 mm 23 W/m2
11:49 11.4 °C 10.6 °C 1006.4 hPa Calm     95% 3.3 mm 30 W/m2
11:54 11.4 °C 10.6 °C 1006.4 hPa Calm     95% 3.3 mm 33 W/m2
11:59 11.5 °C 10.7 °C 1006.4 hPa Calm     95% 3.0 mm 40 W/m2
12:04 11.6 °C 10.8 °C 1006.4 hPa Calm     95% 3.0 mm 37 W/m2
12:09 11.6 °C 10.8 °C 1006.4 hPa Calm   3.2 km/h 95% 2.8 mm 53 W/m2
12:14 11.6 °C 10.8 °C 1006.4 hPa Calm     95% 2.5 mm 44 W/m2
12:19 11.6 °C 10.8 °C 1006.4 hPa Calm   11.3 km/h 95% 2.5 mm 54 W/m2
12:24 11.6 °C 10.8 °C 1006.4 hPa Calm   8 km/h 95% 2.3 mm 37 W/m2
12:29 11.6 °C 10.8 °C 1006.8 hPa Calm   11.3 km/h 95% 1.5 mm 42 W/m2
12:34 11.6 °C 10.8 °C 1006.4 hPa Calm   4.8 km/h 95% 1.5 mm 56 W/m2
12:39 11.6 °C 10.7 °C 1006.4 hPa SSW 11.1 km/h 14.5 km/h 94% 1.0 mm 69 W/m2
12:44 11.6 °C 10.7 °C 1006.4 hPa Calm     94% 0.5 mm 46 W/m2
12:49 11.6 °C 10.7 °C 1006.4 hPa Calm     94% 0.5 mm 42 W/m2
12:54 11.6 °C 10.7 °C 1006.4 hPa Calm   8 km/h 94% 0.5 mm 44 W/m2
12:59 11.6 °C 10.7 °C 1006.4 hPa Calm   8 km/h 94% 0.5 mm 47 W/m2
13:04 11.6 °C 10.7 °C 1006.4 hPa Calm   17.7 km/h 94% 0.5 mm 42 W/m2
13:09 11.6 °C 10.7 °C 1006.4 hPa Calm     94% 0.5 mm 33 W/m2
13:14 11.6 °C 10.7 °C 1006.4 hPa West 22.7 km/h 22.5 km/h 94% 0.5 mm 53 W/m2
13:19 11.6 °C 10.7 °C 1006.4 hPa Calm   1.6 km/h 94% 0.2 mm 62 W/m2
13:24 11.6 °C 10.7 °C 1006.4 hPa WSW 22.5 km/h 22.5 km/h 94% 0.2 mm 62 W/m2
13:29 11.6 °C 10.8 °C 1006.4 hPa Calm     95% 0.2 mm 65 W/m2
13:34 11.7 °C 10.9 °C 1006.4 hPa Calm     95% 0.2 mm 56 W/m2
13:40 11.7 °C 10.9 °C 1006.4 hPa Calm   1.6 km/h 95% 0.2 mm 72 W/m2
13:45 11.7 °C 10.9 °C 1006.4 hPa Calm   1.6 km/h 95% 0.2 mm 54 W/m2
13:50 11.7 °C 10.9 °C 1006.4 hPa Calm   11.3 km/h 95% 0.2 mm 63 W/m2
13:55 11.7 °C 10.9 °C 1006.4 hPa Calm   6.4 km/h 95% 0.2 mm 58 W/m2
14:00 11.7 °C 10.8 °C 1006.4 hPa Calm   11.3 km/h 94% 0.0 mm 65 W/m2
14:05 11.7 °C 10.8 °C 1006.4 hPa Calm   9.7 km/h 94% 0.2 mm 58 W/m2
14:10 11.6 °C 10.8 °C 1006.8 hPa Calm     95% 0.2 mm 54 W/m2
14:15 11.6 °C 10.8 °C 1006.8 hPa WSW 20.9 km/h 20.9 km/h 95% 0.5 mm 35 W/m2
14:20 11.6 °C 10.8 °C 1007.5 hPa Calm   1.6 km/h 95% 1.3 mm 46 W/m2
14:25 11.5 °C 10.7 °C 1007.5 hPa Calm   8 km/h 95% 1.3 mm 93 W/m2
14:30 11.3 °C 10.4 °C 1007.5 hPa Calm     94% 1.5 mm 195 W/m2
14:35 11.2 °C 10.3 °C 1007.5 hPa WNW 16.3 km/h 24.1 km/h 94% 1.5 mm 207 W/m2
14:40 11.2 °C 10.3 °C 1007.5 hPa Calm   1.6 km/h 94% 1.5 mm 149 W/m2
14:45 11.1 °C 10 °C 1007.5 hPa Calm   24.1 km/h 93% 1.5 mm 67 W/m2
14:50 11.1 °C 10 °C 1007.5 hPa Calm   24.1 km/h 93% 1.5 mm 165 W/m2
14:55 11.1 °C 10 °C 1007.5 hPa Calm     93% 1.5 mm 100 W/m2
15:00 11.1 °C 10.2 °C 1007.5 hPa Calm   17.7 km/h 94% 1.5 mm 65 W/m2
15:05 11.1 °C 10.2 °C 1007.5 hPa Calm     94% 1.5 mm 60 W/m2
15:10 11.1 °C 10 °C 1007.8 hPa Calm     93% 1.5 mm 74 W/m2
15:15 11.2 °C 10.1 °C 1007.8 hPa Calm     93% 1.3 mm 137 W/m2
15:20 11.2 °C 10.1 °C 1008.1 hPa WNW 13 km/h 19.3 km/h 93% 0.5 mm 102 W/m2
15:25 11.3 °C 10.2 °C 1008.1 hPa Calm     93% 0.5 mm 84 W/m2
15:30 11.3 °C 10.2 °C 1008.1 hPa Calm     93% 0.2 mm 97 W/m2
15:35 11.4 °C 10.3 °C 1008.5 hPa Calm   1.6 km/h 93% 0.2 mm 76 W/m2
15:40 11.4 °C 10.3 °C 1008.5 hPa Calm     93% 0.2 mm 26 W/m2
15:45 11.3 °C 10.2 °C 1008.5 hPa Calm   1.6 km/h 93% 0.2 mm 30 W/m2
15:50 11.3 °C 10.2 °C 1008.8 hPa Calm     93% 0.0 mm 90 W/m2
15:55 11.3 °C 10.2 °C 1008.8 hPa Calm   1.6 km/h 93% 0.0 mm 79 W/m2
16:01 11.3 °C 10.2 °C 1008.8 hPa Calm     93% 0.0 mm 49 W/m2
16:06 11.3 °C 10.2 °C 1008.8 hPa Calm   14.5 km/h 93% 0.0 mm 25 W/m2
16:11 11.3 °C 10 °C 1008.8 hPa Calm     92% 0.0 mm 37 W/m2
16:16 11.3 °C 10 °C 1009.1 hPa Calm   6.4 km/h 92% 0.0 mm 30 W/m2
16:21 11.3 °C 9.9 °C 1009.1 hPa Calm   4.8 km/h 91% 0.0 mm 21 W/m2
16:26 11.2 °C 9.8 °C 1009.1 hPa Calm     91% 0.0 mm 37 W/m2
16:31 11.2 °C 9.8 °C 1009.1 hPa Calm   1.6 km/h 91% 0.0 mm 37 W/m2
16:36 11.2 °C 9.6 °C 1009.1 hPa Calm     90% 0.0 mm 37 W/m2
16:41 11.2 °C 9.6 °C 1009.1 hPa Calm     90% 0.0 mm 19 W/m2
16:46 11.2 °C 9.6 °C 1009.1 hPa Calm     90% 0.0 mm 18 W/m2
16:51 11.2 °C 9.6 °C 1009.1 hPa Calm     90% 0.0 mm 14 W/m2
16:56 11.2 °C 9.6 °C 1009.5 hPa Calm     90% 0.0 mm 5 W/m2
17:01 11.2 °C 9.6 °C 1009.5 hPa Calm     90% 0.0 mm 11 W/m2
17:06 11.2 °C 9.6 °C 1009.5 hPa Calm     90% 0.0 mm 7 W/m2
17:11 11.1 °C 9.5 °C 1009.5 hPa Calm     90% 0.0 mm 0 W/m2
17:16 11.1 °C 9.5 °C 1009.8 hPa Calm   1.6 km/h 90% 0.0 mm 0 W/m2
17:21 11.1 °C 9.5 °C 1009.8 hPa Calm     90% 0.0 mm 0 W/m2
17:26 11.1 °C 9.7 °C 1009.8 hPa Calm     91% 0.0 mm 0 W/m2
17:31 10.9 °C 9.5 °C 1009.8 hPa WSW 1.4 km/h 9.7 km/h 91% 0.0 mm 0 W/m2
17:36 10.9 °C 9.5 °C 1009.8 hPa Calm   3.2 km/h 91% 0.0 mm 0 W/m2
17:42 10.8 °C 9.6 °C 1010.2 hPa Calm   9.7 km/h 92% 0.0 mm 0 W/m2
17:47 10.8 °C 9.6 °C 1010.2 hPa Calm     92% 0.0 mm 0 W/m2
17:52 10.7 °C 9.5 °C 1010.2 hPa Calm   6.4 km/h 92% 0.0 mm 0 W/m2
17:57 10.7 °C 9.5 °C 1009.8 hPa Calm     92% 0.0 mm 0 W/m2
18:02 10.7 °C 9.5 °C 1010.2 hPa Calm     92% 0.0 mm 0 W/m2
18:07 10.6 °C 9.4 °C 1010.2 hPa Calm     92% 0.0 mm 0 W/m2
18:12 10.6 °C 9.4 °C 1010.2 hPa Calm     92% 0.0 mm 0 W/m2
18:17 10.6 °C 9.4 °C 1010.2 hPa Calm     92% 0.0 mm 0 W/m2
18:22 10.6 °C 9.4 °C 1010.2 hPa Calm     92% 0.0 mm 0 W/m2
18:27 10.6 °C 9.2 °C 1010.2 hPa Calm     91% 0.0 mm 0 W/m2
18:32 10.6 °C 9.2 °C 1010.2 hPa Calm     91% 0.0 mm 0 W/m2
18:37 10.6 °C 9.2 °C 1009.8 hPa Calm     91% 0.0 mm 0 W/m2
18:42 10.6 °C 9.2 °C 1009.8 hPa Calm     91% 0.0 mm 0 W/m2
18:47 10.6 °C 9.2 °C 1010.2 hPa Calm     91% 0.0 mm 0 W/m2
18:52 10.7 °C 9.3 °C 1010.2 hPa Calm   11.3 km/h 91% 0.0 mm 0 W/m2
18:57 10.7 °C 9.3 °C 1010.2 hPa Calm     91% 0.0 mm 0 W/m2
19:02 10.8 °C 9.4 °C 1010.2 hPa Calm   1.6 km/h 91% 0.0 mm 0 W/m2
19:07 10.8 °C 9.4 °C 1010.2 hPa Calm     91% 0.0 mm 0 W/m2
19:12 10.8 °C 9.4 °C 1010.2 hPa Calm   1.6 km/h 91% 0.0 mm 0 W/m2
19:17 10.9 °C 9.5 °C 1010.2 hPa Calm     91% 0.0 mm 0 W/m2
19:22 10.9 °C 9.5 °C 1010.2 hPa Calm     91% 0.0 mm 0 W/m2
19:27 10.9 °C 9.5 °C 1010.2 hPa Calm     91% 0.0 mm 0 W/m2
19:32 11 °C 9.6 °C 1010.2 hPa Calm     91% 0.0 mm 0 W/m2
19:37 11.1 °C 9.7 °C 1010.2 hPa Calm   1.6 km/h 91% 0.0 mm 0 W/m2
19:42 11.1 °C 9.7 °C 1010.2 hPa Calm     91% 0.0 mm 0 W/m2
19:47 11.2 °C 9.8 °C 1010.2 hPa Calm   1.6 km/h 91% 0.0 mm 0 W/m2
19:52 11.2 °C 9.8 °C 1010.2 hPa Calm     91% 0.0 mm 0 W/m2
19:57 11.3 °C 9.7 °C 1010.2 hPa Calm     90% 0.0 mm 0 W/m2
20:02 11.3 °C 9.7 °C 1010.2 hPa Calm     90% 0.0 mm 0 W/m2
20:07 11.4 °C 9.8 °C 1010.5 hPa Calm     90% 0.0 mm 0 W/m2
20:12 11.4 °C 9.8 °C 1010.2 hPa Calm     90% 0.0 mm 0 W/m2
20:18 11.4 °C 9.8 °C 1010.8 hPa Calm     90% 0.2 mm 0 W/m2
20:23 11.3 °C 9.7 °C 1010.8 hPa Calm     90% 0.5 mm 0 W/m2
20:28 11.3 °C 9.7 °C 1010.8 hPa Calm   27.4 km/h 90% 0.5 mm 0 W/m2
20:33 11.2 °C 9.6 °C 1010.8 hPa Calm   1.6 km/h 90% 0.5 mm 0 W/m2
20:38 11.2 °C 9.6 °C 1010.8 hPa Calm     90% 0.5 mm 0 W/m2
20:43 11.2 °C 9.6 °C 1011.2 hPa Calm     90% 0.5 mm 0 W/m2
20:48 11.1 °C 9.7 °C 1011.2 hPa Calm     91% 0.5 mm 0 W/m2
20:53 11.1 °C 9.7 °C 1011.2 hPa Calm   29 km/h 91% 0.5 mm 0 W/m2
20:58 11 °C 9.6 °C 1011.2 hPa Calm     91% 0.5 mm 0 W/m2
21:03 11 °C 9.6 °C 1011.2 hPa Calm   29 km/h 91% 0.5 mm 0 W/m2
21:08 11 °C 9.6 °C 1011.5 hPa Calm   9.7 km/h 91% 0.5 mm 0 W/m2
21:13 11 °C 9.6 °C 1011.5 hPa Calm   17.7 km/h 91% 0.5 mm 0 W/m2
21:18 10.9 °C 9.5 °C 1011.9 hPa Calm   1.6 km/h 91% 0.5 mm 0 W/m2
21:23 10.9 °C 9.5 °C 1011.9 hPa Calm   17.7 km/h 91% 0.5 mm 0 W/m2
21:28 10.8 °C 9.4 °C 1011.9 hPa WNW 25.9 km/h 29 km/h 91% 0.5 mm 0 W/m2
21:33 10.8 °C 9.6 °C 1012.2 hPa Calm     92% 0.5 mm 0 W/m2
21:38 10.8 °C 9.6 °C 1012.2 hPa Calm   29 km/h 92% 0.8 mm 0 W/m2
21:43 10.7 °C 9.5 °C 1012.5 hPa Calm     92% 1.3 mm 0 W/m2
21:48 10.6 °C 9.5 °C 1012.9 hPa Calm     93% 1.5 mm 0 W/m2
21:53 10.5 °C 9.4 °C 1012.9 hPa Calm   1.6 km/h 93% 1.5 mm 0 W/m2
21:58 10.5 °C 9.4 °C 1012.9 hPa Calm   1.6 km/h 93% 1.5 mm 0 W/m2
22:03 10.5 °C 9.4 °C 1012.9 hPa Calm     93% 1.5 mm 0 W/m2
22:08 10.5 °C 9.4 °C 1012.9 hPa Calm   3.2 km/h 93% 1.5 mm 0 W/m2
22:13 10.5 °C 9.4 °C 1012.9 hPa Calm     93% 1.5 mm 0 W/m2
22:18 10.5 °C 9.4 °C 1012.9 hPa Calm     93% 1.3 mm 0 W/m2
22:23 10.4 °C 9.3 °C 1013.2 hPa Calm     93% 1.3 mm 0 W/m2
22:28 10.3 °C 9.1 °C 1013.2 hPa Calm     92% 1.0 mm 0 W/m2
22:33 10.1 °C 8.5 °C 1013.2 hPa Calm   3.2 km/h 90% 1.0 mm 0 W/m2
22:38 10 °C 8.3 °C 1013.5 hPa Calm     89% 0.8 mm 0 W/m2
22:43 9.8 °C 8.1 °C 1013.5 hPa Calm     89% 0.2 mm 0 W/m2
22:48 9.7 °C 8 °C 1013.5 hPa Calm     89% 0.0 mm 0 W/m2
22:53 9.6 °C 7.9 °C 1013.2 hPa Calm     89% 0.0 mm 0 W/m2
22:58 9.4 °C 7.7 °C 1013.5 hPa Calm     89% 0.0 mm 0 W/m2
23:03 9.3 °C 7.6 °C 1013.5 hPa Calm     89% 0.0 mm 0 W/m2
23:08 9.3 °C 7.6 °C 1013.5 hPa Calm     89% 0.0 mm 0 W/m2
23:13 9.2 °C 7.5 °C 1013.5 hPa Calm     89% 0.0 mm 0 W/m2
23:18 9.2 °C 7.5 °C 1013.5 hPa Calm     89% 0.0 mm 0 W/m2
23:23 9.1 °C 7.5 °C 1013.5 hPa Calm     90% 0.0 mm 0 W/m2
23:28 9.1 °C 7.5 °C 1013.5 hPa Calm     90% 0.0 mm 0 W/m2
23:33 9 °C 7.4 °C 1013.5 hPa Calm     90% 0.0 mm 0 W/m2
23:38 9 °C 7.6 °C 1013.5 hPa Calm     91% 0.0 mm 0 W/m2
23:43 9 °C 7.6 °C 1013.9 hPa Calm     91% 0.0 mm 0 W/m2
23:48 9 °C 7.6 °C 1013.5 hPa Calm     91% 0.0 mm 0 W/m2
23:53 9.1 °C 7.9 °C 1013.5 hPa Calm     92% 0.0 mm 0 W/m2
23:58 9.1 °C 7.9 °C 1013.5 hPa Calm     92% 0.0 mm 0 W/m2
Juneau County Weather
Compliments of Weather Underground - 4 mb